www.pogodaiklimat.ru
Время
(UTC), дата
00 9.10
03 9.10
06 9.10
09 9.10
12 9.10
15 9.10
18 9.10
21 9.10
00 10.10
03 10.10
06 10.10
09 10.10
12 10.10
15 10.10
18 10.10
21 10.10
00 11.10
03 11.10
06 11.10
09 11.10
12 11.10
15 11.10
18 11.10
21 11.10
00 12.10
03 12.10
06 12.10
09 12.10
12 12.10
15 12.10
18 12.10
21 12.10
00 13.10
03 13.10
06 13.10
09 13.10
12 13.10
15 13.10
18 13.10
21 13.10
00 14.10
03 14.10
06 14.10
09 14.10
12 14.10
15 14.10
18 14.10
21 14.10
00 15.10
03 15.10
06 15.10
09 15.10
12 15.10
15 15.10
18 15.10
Ветер
(напр.,м/с)
Видим. Явления Облачность Т
(С)
Тd
(С)
f
(%)
Тe
(С)
Тes
(С)
Комфортность P
(гПа)
Po
(гПа)
Тmin
(С)
Tmax
(С)
R
(мм)
R24
(мм)
S
(см)
В 1 50 км 10/6 1000 м
[Sc Ac trans Ci fib]
+4.6 -3.9 54 +4 +4 по сезону 1026.2 1025.3
В 2 50 км 6/3 1000 м
[Sc Ac trans Ci fib]
+5.8 -2.1 57 +4 +5 по сезону 1026.2 1025.3
СВ 2 50 км 10/3 1000 м
[Sc Ac trans Cs]
+4.4 -1.7 65 +2 +2 по сезону 1025.4 1024.5
С 3 20 км ясно +1.4 -3.1 72 -3 -3 прохладно 1026.2 1025.3 +6.1
С 2 20 км ясно +1.6 -2.3 75 -2 -2 по сезону 1024.9 1024.0
СВ 2 20 км 10/0
[Ac trans Ci fib]
+4.6 +0.9 77 +2 +2 по сезону 1022.2 1021.3
В 7 20 км 10/10 1000 м
[Sc]
+6.6 +3.6 81 +2 +2 по сезону 1019.6 1018.7
В 8-10
{10}
20 км слаб. ливневой дождь 10/10 300 м
[Cb cap]
+6.7 +3.7 81 +2 +2 по сезону 1015.8 1014.9 +1.0 0.4
В 8-11
{12}
20 км слаб. ливневой дождь 10/10 300 м
[Cb cap]
+6.5 +3.9 83 +1 +1 по сезону 1013.3 1012.4
В 8-10
{12}
20 км слаб. ливневой дождь 10/10 300 м
[Cb cap]
+6.1 +3.1 81 +1 +1 по сезону 1010.3 1009.5
В 12-16
{17}
20 км слаб. ливневой дождь 10/10 300 м
[Cb cap]
+6.0 +3.5 84 -1 -1 по сезону 1008.9 1008.0
В 14-14
{19}
10 км слаб. ливневой дождь 10/10 300 м
[Cb cap]
+5.7 +2.7 81 -1 -1 по сезону 1010.2 1009.3 +6.7 3
СВ 12-17
{19}
н/о н/о +5.1 +2.3 82 -2 -2 по сезону 1009.8 1008.9
С 6 10 км слаб. ливневой дождь 10/10 300 м
[Cb cap]
+3.1 +0.8 85 -3 -3 прохладно 1011.1 1010.2
С 4
{10}
20 км {ливн. осадки} 10/10 600 м
[Sc diur, vesp]
+2.6 -0.1 82 -2 -2 по сезону 1012.9 1012.0
С 3 20 км 10/10 600 м
[Sc]
+4.0 0.0 75 0 0 по сезону 1014.5 1013.6 +2.5 3
С 3 20 км слаб. ливневой дождь 10/10 300 м
[Cb cap]
+4.8 +0.6 74 +1 +1 по сезону 1016.2 1015.3
С 2 20 км слаб. ливневой дождь 10/10 300 м
[Cb cap]
+5.3 +0.9 73 +3 +3 по сезону 1019.6 1018.7
СВ 1 20 км {ливн. осадки} 10/10 600 м
[Sc]
+5.5 +1.4 75 +4 +4 по сезону 1020.9 1020.0
ЮЗ 1 20 км 10/10 600 м
[Sc]
+4.2 +1.4 82 +3 +3 по сезону 1022.2 1021.3 +6.1 0.8
ЮЗ 1 20 км 10/10 600 м
[Sc]
+3.6 +1.3 85 +2 +2 по сезону 1022.2 1021.3
ЮЗ 1 20 км 10/10 600 м
[Sc]
+3.1 +1.0 86 +2 +2 по сезону 1022.2 1021.3
ЮЗ 1 20 км 10/10 600 м
[Sc]
+3.4 +1.8 89 +2 +2 по сезону 1022.2 1021.3
Ю 6 20 км 10/10 300 м
[St]
+5.7 +3.2 84 +1 +1 по сезону 1020.6 1019.7 +3.0
Ю 7-10
{11}
20 км {ливн. осадки} 10/10 300 м
[St]
+6.9 +2.8 75 +2 +2 по сезону 1019.5 1018.6
Ю 6-10
{13}
20 км в посл. час ливневой дождь 10/10 300 м
[St]
+6.2 +2.7 78 +2 +2 по сезону 1016.9 1016.1
Ю 9-13
{13}
20 км в посл. час ливневой дождь 10/10 200 м
[St]
+5.6 +3.0 83 -0 -0 по сезону 1014.6 1013.7
ЮВ 10-14
{14}
20 км 10/10 300 м
[St]
+6.2 +3.5 83 0 0 по сезону 1012.9 1012.0 +7.4 0.4
ЮВ 10-15
{15}
10 км ливневой дождь 10/10 200 м
[Cb cap]
+6.4 +3.9 84 +1 +1 по сезону 1009.3 1008.4
ЮВ 9-13
{15}
10 км ливневой дождь 10/10 200 м
[Cb cap]
+6.3 +4.1 86 +1 +1 по сезону 1006.2 1005.3
З 6
{13}
10 км ливневой дождь 10/10 200 м
[Cb cap]
+4.0 +1.6 84 -1 -1 по сезону 1002.3 1001.4
З 2
{14}
20 км слаб. ливневой дождь 10/10 300 м
[Cb cap]
+3.1 0.0 80 0 0 по сезону 1003.4 1002.5 +3.0 23
ЮЗ 3 20 км {ливн. осадки} 10/10 600 м
[Sc diur, vesp]
+4.2 -0.9 69 +1 +1 по сезону 1003.3 1002.4 +3.0
ЮЗ 5 20 км 10/5 600 м
[Sc Ac trans Ci fib]
+5.3 -4.8 48 +1 +2 по сезону 1002.7 1001.7
ЮЗ 1 20 км 10/3 600 м
[Sc Ac trans Ci fib]
+3.8 -3.5 59 +3 +3 по сезону 1002.7 1001.8
З 4 20 км 10/3 600 м
[Sc Ac trans Ci fib]
+2.0 -5.0 60 -2 -2 по сезону 1003.0 1002.1 +6.5 0.5
ЮЗ 2 20 км 10/0
[Ac trans Ci fib]
-0.8 1002.9 1002.0
ЮЗ 2 20 км 10/0
[Ac trans Ci fib]
-1.9 -5.4 77 -6 -6 холодно 1003.6 1002.7
ЮЗ 1 20 км 10/0
[Ci fib]
-3.0 -6.5 77 -5 -5 холодно 1000.7 999.8
ЮЗ 1 20 км 4/0
[Ci fib]
-2.6 -5.6 80 -5 -5 холодно 999.3 998.4 -3.4
ЮЗ 3 50 км 10/0
[Ac trans Ci fib]
+3.4 -4.9 55 0 +1 по сезону 997.8 997.0
Ю 1 50 км 10/0
[Ac trans Ci fib]
+5.1 -5.3 47 +5 +5 тепло 996.9 996.0
З 1 50 км 10/4 600 м
[Sc Ac trans Ci fib]
+1.3 -5.4 61 0 0 по сезону 995.1 994.2
З 3 20 км 10/4 600 м
[Sc Ac trans Ci fib]
+1.1 -4.9 64 -3 -3 прохладно 995.6 994.7 +5.7
ЮЗ 2 20 км 10/0
[Ac trans Ci fib]
-0.5 -4.8 73 -4 -4 прохладно 995.2 994.3
ЮЗ 2 20 км 3/0
[Ci fib]
-1.9 -5.1 79 -6 -6 холодно 995.6 994.7
ЮЗ 3 20 км 3/0
[Ci fib]
-3.8 -5.9 85 -9 -9 очень
холодно
994.2 993.3
ЮЗ 3 50 км 6/0
[Ac trans Ci fib]
-1.8 -4.5 82 -7 -7 холодно 995.6 994.7 -4.9
ЮЗ 4 50 км 6 баллов +3.2 -5.2 54 -1 -0 по сезону 995.6 994.7
З 4 50 км 10 баллов +4.4 -7.4 42 +1 +1 по сезону 994.2 993.3
СЗ 1 50 км 10 баллов +0.8 -7.0 56 -1 -1 по сезону 994.2 993.3
штиль 0 50 км ?/? -1.7 -6.1 72 -3 -3 прохладно 992.9 992.0 +4.7
СЗ 1 20 км 10 баллов -3.8 -6.3 83 -6 -6 холодно 992.9 992.0
штиль 0 20 км 9 баллов -4.8 -7.6 81 -6 -6 холодно 991.6 990.7
ЮЗ 1 н/о н/о -3.7 -8.5 69 -6 холодно 991.6 990.7
Местоположение метеостанции Оссора (Камчатский край, Россия): широта 59.23 долгота 163.00 высота над уровнем моря 7 м.
В архиве по умолчанию представлена погода в Оссоре за последнюю неделю. Архивные данные за месяц целиком и за предыдущие месяцы, начиная с января 2011 года, Вы можете получить, выбрав интересующий диапазон дат из раскрывающегося списка и нажав кнопку "Найти!".
*Определитесь, кто Вы:
Внимание! Время в таблицах - всемирное. Для получения местного времени необходимо прибавить поправку, которая равна 12 ч.
Смотрите также архив погоды в соседних городах и на ближайших метеорологических станциях:
Партнеры нашего сайта:      
Пояснения к столбцам:
  • Ветер - указаны скорость ветра в м/с - средняя за 10 мин, порывы в срок и между сроками (в фигурных скобках) и направление, откуда дует ветер: С - северный,
  • СВ - северо-восточный, В - восточный, ЮВ - юго-восточный, Ю - южный, ЮЗ - юго-западный, З - западный, СЗ - северо-западный.
  • Видимость - горизонтальная дальность видимости в метрах или километрах. При видимости от 1 до 10 км при отсутствии осадков обычно наблюдается дымка, при ухудшении видимости до 1 км и менее - туман. В сухую погоду видимость может ухудшаться дымом, пылью или мглою.
  • Явления - указаны атмосферные явления, наблюдавшиеся в срок или в последний час перед сроком; фигурными скобками обозначены явления, наблюдавшиеся между сроками (за 1-3 часа до срока); квадратными скобками обозначены град или гололедные отложения с указанием их диаметра в мм.
  • Облачность - указаны через наклонную черту общая и нижняя облачность в баллах и высота нижней границы облаков в метрах; квадратными скобками обозначены формы облаков: Ci - перистые, Cs - перисто-слоистые, Cc - перисто-кучевые, Ac - высококучевые, As - высокослоистые, Sc - слоисто-кучевые, Ns - слоисто-дождевые, Cu - кучевые, Cb - кучево-дождевые. Подробнее классификацию облаков см. в Атласе облаков (PDF).
  • T - Температура воздуха - температура, измеренная на высоте 2 м над землей.
  • Td - Температура точки росы - температура, при понижении до которой содержащийся в воздухе водяной пар достигнет насыщения.
  • f - Относительная влажность воздуха - влажноcть воздуха, измеренная на высоте 2 м над землей.
  • Te - Эффективная температура - температура, которую ощущает одетый по сезону человек в тени. Характеристика душности погоды. При расчете учитывается влияние влажности воздуха и скорости ветра на теплоощущения человека.
  • Tes - Эффективная температура на солнце - температура, которую ощущает человек, с поправкой на солнечный нагрев. Характеристика знойности погоды. Зависит от высоты солнца над горизонтом, облачности и скорости ветра. Ночью, в пасмурную погоду, а также при ветре 12 м/с и более поправка равна нулю.
  • P - Атмосферное давление - приведенное к уровню моря атмосферное давление.
  • Po - Атмосферное давление - измеренное на уровне метеостанции атмосферное давление.
  • Tmin - Минимальная температура - минимум температуры воздуха на высоте 2 м над землей.
  • Tmax - Максимальная температура - максимум температуры воздуха на высоте 2 м над землей.
  • R - Количество осадков - Количество выпавших осадков за период времени, мм. При наведении курсора мыши на число - период времени, за который выпало указанное количество осадков.
  • R24 - Количество осадков - Количество выпавших осадков за 24 часа, мм.
  • S - Снежный покров - Высота снежного покрова, см. При наведении курсора мыши на число - состояние снежного покрова и степень покрытия местности в баллах.